TimeEDT,TemperatureF,Dew PointF,Humidity,Sea Level PressureIn,VisibilityMPH,Wind Direction,Wind SpeedMPH,Gust SpeedMPH,PrecipitationIn,Events,Conditions,WindDirDegrees,DateUTC
12:15 AM,45.1,42.1,89,30.00,2.5,Calm,Calm,-,N/A,,Clear,0,2013-10-18 04:15:00
12:35 AM,45.1,42.1,89,29.99,1.5,WSW,3.5,-,N/A,,Mist,240,2013-10-18 04:35:00
12:55 AM,42.8,39.6,88,30.00,1.8,WSW,3.5,-,N/A,,Mist,240,2013-10-18 04:55:00
1:15 AM,41.0,37.9,89,30.00,0.5,WSW,3.5,-,N/A,Fog,Fog,250,2013-10-18 05:15:00
1:35 AM,41.4,38.3,89,30.00,0.5,SW,3.5,-,N/A,Fog,Fog,220,2013-10-18 05:35:00
1:55 AM,42.3,39.2,89,30.00,4.0,SW,3.5,-,N/A,,Clear,230,2013-10-18 05:55:00
2:15 AM,41.0,37.9,89,30.00,1.2,WSW,3.5,-,N/A,,Mist,250,2013-10-18 06:15:00
2:35 AM,41.2,38.1,89,30.00,0.5,Calm,Calm,-,N/A,Fog,Fog,0,2013-10-18 06:35:00
2:55 AM,41.4,38.3,89,30.00,0.5,Calm,Calm,-,N/A,Fog,Fog,0,2013-10-18 06:55:00
3:15 AM,41.4,38.3,89,30.00,0.8,WSW,3.5,-,N/A,,Mist,240,2013-10-18 07:15:00
3:35 AM,40.1,37.0,89,30.00,1.0,WSW,3.5,-,N/A,,Mist,240,2013-10-18 07:35:00
3:55 AM,40.3,37.4,89,30.00,0.5,WSW,3.5,-,N/A,Fog,Fog,250,2013-10-18 07:55:00
4:15 AM,40.6,37.8,89,30.00,0.2,Calm,Calm,-,N/A,Fog,Fog,0,2013-10-18 08:15:00
4:35 AM,38.8,35.8,89,30.00,0.2,Calm,Calm,-,N/A,Fog,Fog,0,2013-10-18 08:35:00
4:55 AM,40.1,37.4,90,30.00,0.5,WSW,3.5,-,N/A,Fog,Fog,240,2013-10-18 08:55:00
5:15 AM,38.8,36.0,89,30.00,0.5,WSW,3.5,-,N/A,Fog,Fog,240,2013-10-18 09:15:00
5:35 AM,40.3,37.4,89,30.00,0.8,SW,3.5,-,N/A,,Mist,230,2013-10-18 09:35:00
5:55 AM,40.1,37.2,89,30.01,0.2,SW,3.5,-,N/A,Fog,Fog,220,2013-10-18 09:55:00
6:15 AM,39.9,36.9,89,30.01,0.2,SW,3.5,-,N/A,Fog,Fog,230,2013-10-18 10:15:00
6:35 AM,39.9,36.9,89,30.01,0.2,WSW,3.5,-,N/A,Fog,Fog,240,2013-10-18 10:35:00
6:55 AM,39.2,36.3,89,30.02,0.2,WSW,3.5,-,N/A,Fog,Fog,250,2013-10-18 10:55:00
7:15 AM,38.8,36.0,89,30.02,0.2,SW,3.5,-,N/A,Fog,Fog,230,2013-10-18 11:15:00
7:35 AM,37.6,34.7,89,30.02,0.2,Calm,Calm,-,N/A,Fog,Fog,0,2013-10-18 11:35:00
7:55 AM,37.6,34.7,89,30.03,0.2,WSW,3.5,-,N/A,Fog,Fog,250,2013-10-18 11:55:00
8:15 AM,38.3,35.4,89,30.03,0.2,WSW,4.6,-,N/A,Fog,Fog,240,2013-10-18 12:15:00
8:35 AM,39.9,37.0,89,30.04,0.2,WSW,4.6,-,N/A,Fog,Fog,240,2013-10-18 12:35:00
8:55 AM,41.5,38.7,89,30.05,0.2,WSW,3.5,-,N/A,Fog,Fog,250,2013-10-18 12:55:00
9:15 AM,45.1,42.3,90,30.05,0.8,WSW,3.5,-,N/A,,Mostly Cloudy,250,2013-10-18 13:15:00
9:35 AM,47.7,44.6,89,30.05,2.0,SW,3.5,-,N/A,,Clear,220,2013-10-18 13:35:00
9:55 AM,47.7,44.6,89,30.06,5.0,SW,4.6,-,N/A,,Clear,230,2013-10-18 13:55:00
10:15 AM,47.7,44.6,89,30.06,7.0,SSW,5.8,-,N/A,,Scattered Clouds,210,2013-10-18 14:15:00
10:35 AM,50.2,47.1,89,30.05,10.0,WSW,6.9,-,N/A,,Clear,240,2013-10-18 14:35:00
10:55 AM,52.7,49.5,89,30.05,10.0,SW,9.2,-,N/A,,Clear,220,2013-10-18 14:55:00
11:15 AM,55.0,49.1,80,30.05,10.0,SW,8.1,-,N/A,,Clear,230,2013-10-18 15:15:00
11:35 AM,55.4,45.9,70,30.04,10.0,SW,8.1,-,N/A,,Clear,220,2013-10-18 15:35:00
11:55 AM,57.7,46.2,65,30.05,10.0,SW,11.5,-,N/A,,Clear,220,2013-10-18 15:55:00
12:15 PM,58.5,45.1,61,30.04,10.0,SSW,8.1,-,N/A,,Clear,210,2013-10-18 16:15:00
12:35 PM,60.1,44.2,56,30.04,10.0,SW,9.2,-,N/A,,Clear,230,2013-10-18 16:35:00
12:55 PM,60.3,42.6,52,30.03,10.0,SW,12.7,-,N/A,,Clear,220,2013-10-18 16:55:00
1:15 PM,61.2,42.3,50,30.02,10.0,WSW,11.5,-,N/A,,Clear,240,2013-10-18 17:15:00
1:35 PM,62.4,41.9,47,30.01,10.0,SSW,15.0,-,N/A,,Scattered Clouds,210,2013-10-18 17:35:00
1:55 PM,62.6,42.6,48,30.00,10.0,WSW,12.7,16.1,N/A,,Scattered Clouds,250,2013-10-18 17:55:00
2:15 PM,63.5,41.2,44,30.00,10.0,SSW,12.7,17.3,N/A,,Scattered Clouds,210,2013-10-18 18:15:00
2:35 PM,64.6,42.3,44,29.99,10.0,SW,11.5,18.4,N/A,,Scattered Clouds,220,2013-10-18 18:35:00
2:55 PM,65.3,42.1,43,29.98,10.0,SSW,10.4,-,N/A,,Scattered Clouds,210,2013-10-18 18:55:00
3:15 PM,65.3,39.7,39,29.98,10.0,SW,12.7,-,N/A,,Scattered Clouds,220,2013-10-18 19:15:00
3:35 PM,65.3,39.6,39,29.97,10.0,SW,11.5,-,N/A,,Scattered Clouds,230,2013-10-18 19:35:00
3:55 PM,64.6,38.5,38,29.97,10.0,SW,10.4,-,N/A,,Scattered Clouds,230,2013-10-18 19:55:00
4:15 PM,62.1,38.8,42,29.96,10.0,SSW,11.5,17.3,N/A,,Scattered Clouds,200,2013-10-18 20:15:00
4:35 PM,65.3,38.5,37,29.96,10.0,SSW,5.8,-,N/A,,Scattered Clouds,210,2013-10-18 20:35:00
4:55 PM,62.4,38.7,41,29.96,10.0,SW,11.5,-,N/A,,Scattered Clouds,220,2013-10-18 20:55:00
5:15 PM,62.4,37.9,40,29.96,10.0,SSW,12.7,-,N/A,,Mostly Cloudy,210,2013-10-18 21:15:00
5:35 PM,62.6,38.5,41,29.96,10.0,SSW,9.2,-,N/A,,Scattered Clouds,210,2013-10-18 21:35:00
5:55 PM,60.6,38.5,44,29.95,10.0,SW,9.2,-,N/A,,Scattered Clouds,220,2013-10-18 21:55:00
6:15 PM,59.4,39.4,48,29.96,10.0,SSW,6.9,-,N/A,,Scattered Clouds,210,2013-10-18 22:15:00
6:35 PM,59.4,38.7,46,29.96,10.0,SSW,8.1,-,N/A,,Mostly Cloudy,210,2013-10-18 22:35:00
6:55 PM,56.1,40.8,57,29.96,10.0,SW,5.8,-,N/A,,Scattered Clouds,230,2013-10-18 22:55:00
7:15 PM,55.0,42.6,63,29.96,10.0,WSW,3.5,-,N/A,,Clear,240,2013-10-18 23:15:00
7:35 PM,52.7,45.1,75,29.97,10.0,WSW,3.5,-,N/A,,Clear,250,2013-10-18 23:35:00
7:55 PM,51.8,45.3,79,29.97,10.0,Calm,Calm,-,N/A,,Clear,0,2013-10-18 23:55:00
8:15 PM,51.6,45.9,81,29.97,10.0,Calm,Calm,-,N/A,,Clear,0,2013-10-19 00:15:00
8:35 PM,52.2,46.9,82,29.98,10.0,Calm,Calm,-,N/A,,Clear,0,2013-10-19 00:35:00
8:55 PM,49.3,44.8,84,29.98,10.0,Calm,Calm,-,N/A,,Clear,0,2013-10-19 00:55:00
9:15 PM,49.1,44.6,84,29.98,10.0,Calm,Calm,-,N/A,,Clear,0,2013-10-19 01:15:00
9:35 PM,48.0,43.5,84,29.98,10.0,Calm,Calm,-,N/A,,Clear,0,2013-10-19 01:35:00
9:55 PM,47.7,43.2,84,29.98,10.0,Calm,Calm,-,N/A,,Clear,0,2013-10-19 01:55:00
10:15 PM,47.7,43.7,86,29.98,10.0,Calm,Calm,-,N/A,,Clear,0,2013-10-19 02:15:00
10:35 PM,47.7,43.7,86,29.98,10.0,Calm,Calm,-,N/A,,Clear,0,2013-10-19 02:35:00
10:55 PM,47.7,43.9,87,29.98,10.0,Calm,Calm,-,N/A,,Clear,0,2013-10-19 02:55:00
11:15 PM,47.7,43.9,87,29.97,10.0,Calm,Calm,-,N/A,,Clear,0,2013-10-19 03:15:00
11:35 PM,47.7,44.1,87,29.97,10.0,NNW,4.6,-,N/A,,Scattered Clouds,340,2013-10-19 03:35:00
11:55 PM,52.7,44.2,73,29.97,10.0,Calm,Calm,-,N/A,,Mostly Cloudy,0,2013-10-19 03:55:00